RH
4 4 4 4 3 4 4 4 4 4 4 4 4 5 6 8 9 9 9 9 8 8 8 8 8 8 9 13 24 36 53 66 72
4 4 4 3 3 3 3 4 4 5 5 6 6 6 7 8 8 8 9 8 8 7 8 10 10 10 10 9 9 14 24 51 75
5 4 4 4 3 3 3 4 6 7 8 8 9 8 8 8 7 6 6 5 5 5 6 8 9 10 11 12 12 11 10 18 44
5 5 5 5 5 5 5 5 6 8 9 9 9 8 8 9 9 9 9 8 8 6 6 6 6 8 10 11 11 12 12 11 12
5 5 5 5 6 6 6 6 7 7 8 9 10 10 10 10 10 10 9 9 9 8 7 6 7 7 7 10 11 11 12 12 12
6 6 5 5 6 6 6 6 6 6 6 6 6 6 6 6 6 7 7 7 8 8 8 8 8 9 9 8 9 11 11 12 12
6 6 6 7 7 7 6 6 6 6 6 6 6 7 7 6 7 7 8 9 11 13 13 15 17 16 17 16 12 10 10 12 12
8 8 9 9 9 8 8 7 7 6 7 6 7 7 8 8 9 12 14 15 17 19 20 20 20 20 22 23 25 22 12 10 11
9 10 10 10 9 8 7 7 7 7 7 7 7 8 9 12 12 21 25 28 30 30 30 31 27 21 20 22 28 33 33 24 14
10 11 11 10 8 7 7 7 7 7 7 7 7 8 11 15 14 22 28 33 35 37 38 35 32 28 20 20 23 28 38 37 31
11 12 12 10 8 8 8 8 8 8 8 8 11 16 19 22 24 25 24 23 25 29 33 37 36 32 28 22 21 24 33 38 34
11 12 12 11 10 11 11 10 9 8 8 14 23 27 26 26 25 23 20 17 15 15 17 20 27 31 30 27 22 24 26 32 34
12 12 12 11 12 13 12 10 9 10 19 28 31 31 30 28 26 24 19 17 15 11 10 9 9 12 18 20 22 22 25 30 34
12 12 12 12 14 14 12 10 10 19 31 34 34 35 33 32 29 26 19 16 15 14 13 11 9 8 8 9 11 16 21 24 29
13 13 13 14 16 15 12 10 13 27 36 37 37 36 36 35 34 32 29 26 22 19 17 15 14 12 11 9 8 9 12 17 23
14 14 13 15 16 14 12 13 17 32 39 39 39 39 38 38 37 37 37 36 34 30 26 20 17 16 15 13 12 11 9 9 11
14 14 14 16 16 16 20 24 26 31 41 42 42 43 40 40 41 41 40 40 39 37 34 31 26 22 19 18 17 15 14 12 11
15 14 16 16 21 30 35 36 34 32 42 44 44 44 44 44 43 44 44 43 42 42 40 38 34 30 28 25 23 21 19 18 16
16 16 20 31 38 39 40 40 40 38 42 47 48 48 48 47 47 48 46 46 46 45 46 44 41 38 36 34 32 29 26 24 22
19 27 36 41 41 42 44 44 44 44 46 50 51 51 51 51 50 49 50 53 53 53 51 50 47 44 43 43 41 38 34 32 29
Wind_Speed
14 14 14 13 13 12 12 11 10 10 10 9 9 8 8 8 8 9 10 11 12 12 13 14 15 16 16 17 18 18 17 16 15
14 14 13 13 12 12 11 10 10 10 10 9 9 9 9 9 10 11 12 13 13 14 13 13 15 16 16 17 19 20 20 19 17
13 13 13 12 12 12 11 11 10 10 10 10 10 10 10 11 12 13 12 13 14 14 14 14 15 16 17 17 18 19 20 22 21
12 12 12 12 13 12 12 11 10 10 9 9 9 10 10 11 12 13 13 14 15 15 15 16 16 17 17 18 19 19 20 21 23
12 11 12 13 12 12 12 12 11 11 11 11 11 12 13 15 14 14 15 16 16 16 16 16 17 17 18 19 18 19 20 21 22
11 11 11 11 11 11 12 12 12 12 13 13 13 14 16 17 17 16 16 16 16 17 17 17 17 18 18 19 19 19 19 20 21
10 10 10 10 10 11 12 12 13 13 13 14 15 15 16 17 18 19 18 17 17 17 17 17 18 18 17 18 19 19 19 20 20
10 10 10 10 10 10 11 12 13 14 14 16 17 18 18 18 17 16 17 17 17 17 18 18 19 19 19 19 18 18 19 20 20
11 11 11 11 11 11 11 11 13 14 16 18 19 20 20 21 18 16 16 16 17 17 17 17 18 19 20 20 20 17 16 18 19
12 11 11 11 11 12 13 14 16 18 19 20 21 21 22 21 19 16 15 15 16 16 17 18 19 19 19 20 21 20 16 16 16
12 12 12 12 13 14 15 17 18 19 20 21 21 19 18 19 18 16 15 16 17 17 18 19 19 20 20 20 21 21 19 17 16
13 13 13 13 14 16 17 19 20 21 22 21 19 16 14 14 16 16 15 15 16 17 18 19 20 20 21 22 21 22 22 21 18
14 14 14 15 16 18 19 19 20 21 21 20 18 15 13 12 13 14 14 15 15 14 15 16 18 20 20 21 23 22 23 23 21
14 15 15 16 17 19 20 20 20 22 21 18 16 15 14 13 13 14 15 15 16 17 17 17 17 17 18 19 20 22 22 23 23
15 16 16 18 19 20 20 21 22 21 19 17 17 16 17 16 15 15 15 16 16 17 18 19 18 19 18 17 18 19 20 21 23
16 17 18 19 20 20 21 22 23 22 20 19 19 17 16 16 16 16 17 17 17 17 18 18 18 18 18 18 16 16 17 17 20
18 18 19 21 21 22 24 25 24 22 21 20 20 21 20 20 19 18 18 19 19 19 19 19 19 19 18 18 18 18 16 17 16
19 19 21 22 25 25 25 25 24 22 22 23 23 23 23 22 21 21 22 22 22 22 22 21 20 20 19 19 18 18 18 17 18
20 21 23 25 26 26 26 26 26 25 24 24 25 25 25 25 25 25 26 26 27 27 25 25 25 23 22 21 20 20 20 20 19
21 23 25 26 27 28 28 28 27 27 27 26 26 27 28 30 31 30 28 28 28 29 29 27 28 28 26 25 24 22 23 23 22
Wind_Direction
2 0 0 4 6 6 8 7 8 9 8 6 4 1 352 348 341 333 333 321 321 318 315 313 301 293 286 278 270 270 274 276 271
1 360 1 6 7 8 8 9 14 13 13 10 8 359 348 339 330 323 321 317 314 311 308 300 294 292 289 283 278 271 265 265 267
359 360 3 8 11 11 11 14 15 15 12 7 4 355 346 338 329 328 321 320 317 313 307 299 295 291 287 282 278 275 270 263 259
0 5 8 15 17 14 14 13 13 10 5 359 354 348 342 333 328 330 326 322 320 318 314 308 301 295 290 284 279 274 269 265 261
6 8 14 18 18 16 14 13 11 7 0 352 343 337 331 327 321 317 320 316 315 313 309 307 304 302 295 289 282 277 271 265 263
1 5 8 8 8 5 3 2 2 1 355 348 343 339 334 327 329 322 320 317 314 311 306 305 303 300 297 293 287 280 275 270 265
353 358 357 359 356 355 353 355 356 354 349 344 340 334 329 326 328 320 318 317 314 312 310 309 303 301 297 292 288 282 276 272 267
338 341 345 347 348 348 347 350 352 352 346 342 336 328 324 319 319 318 318 318 316 316 316 311 309 306 303 298 293 287 279 274 271
331 337 340 344 349 350 347 347 345 340 336 332 329 325 324 319 323 325 320 319 316 315 313 311 310 308 304 301 299 295 292 283 277
327 332 335 336 339 339 336 337 336 333 331 329 327 325 322 319 326 327 322 318 315 314 313 311 309 307 303 300 297 299 294 289 282
321 327 330 330 332 332 331 331 329 327 327 326 326 327 326 325 329 326 325 320 317 317 317 314 309 305 304 301 298 294 289 285 281
316 321 323 325 327 327 329 329 328 328 328 327 326 328 330 328 327 328 323 320 321 320 316 314 311 308 307 306 302 296 290 286 281
310 315 317 321 324 326 327 327 327 328 329 328 329 330 328 325 325 323 320 320 317 316 314 312 311 308 306 306 304 300 295 289 284
307 311 314 318 320 323 323 325 329 330 328 325 323 324 325 324 322 322 323 323 323 321 318 318 315 313 312 308 306 303 298 295 288
302 306 310 315 321 323 323 325 327 327 324 320 322 324 321 322 320 318 318 318 320 321 320 319 318 316 315 314 313 309 303 297 292
298 303 309 315 318 320 321 322 323 322 321 318 315 315 315 313 311 309 308 310 313 314 313 314 313 311 311 313 313 312 309 306 302
297 302 308 312 315 317 320 321 319 317 315 313 312 313 312 308 310 311 310 306 304 304 306 308 307 306 306 306 308 309 308 308 305
298 303 308 312 317 319 317 315 311 308 307 309 310 311 310 310 305 304 304 303 302 301 299 300 302 301 301 302 301 301 303 302 302
302 308 312 313 312 311 312 312 309 307 307 308 307 306 304 303 303 306 304 304 303 299 297 296 295 298 300 299 299 299 298 298 297
304 306 307 309 311 311 309 305 303 302 302 302 302 301 300 298 297 295 294 298 298 296 295 292 292 290 292 295 296 295 296 296 295